www.pogodaiklimat.ru

Погода и климат >> Архив погоды >> Боливия >> Rurrenabaque


ПОГОДА в Rurrenabaque

  • Прогноз погоды в Rurrenabaque
  • Монитор погоды в Rurrenabaque
  • Климат города

АРХИВ ПОГОДЫ в Rurrenabaque

Время (UTC), дата Ветер
(напр.,м/с)
 
Видим.   Явления Облачность Т
(С)
Тd
(С)
f
(%)
Тe
(С)
Тes
(С)
Комфортность P
(гПа)
Po
(гПа)
Тmin
(С)
Tmax
(С)
R
(мм)
S
(см)
12 16.03 С 2 20 км 9/8 480 м
[Sc Ci]
+25.2 +25.2 100 +36 +37 очень
душно
1009.2 986.4 +24.0 0.5
15 16.03 штиль 0 3000 м ливневой дождь 9/9 300 м
[Cb cap As trans]
+27.8 +25.8 89 +41 +44 опасность
перегрева
1010.1 987.2
18 16.03 штиль 0 6000 м гроза без осадков {дождь} туман 10/8 450 м
[Cb cap As op]
+24.8 +24.8 100 +35 +36 очень
душно
1008.5 985.6 20
21 16.03 штиль 0 4000 м {гроза} 10/8 90 м
[Frnb As op]
+25.0 +24.7 98 +35 +35 очень
душно
1006.0 983.1 +28.6
12 17.03 Ю 2 8000 м слабый дождь 10/8 400 м
[Sc As op]
+20.0 +19.7 98 +24 +24 комфорт 1015.5 992.2 +19.6 66
15 17.03 Ю 3 20 км {дождь} 10/8 500 м
[Sc As op]
+23.0 +21.4 91 +31 +31 очень
душно
1016.6 993.3
18 17.03 ЮЗ 4 20 км 9/5 500 м
[Cu hum Ac trans Ci]
+27.5 +23.1 77 +37 +40 очень
душно
1013.6 990.5 0.7
21 17.03 В 3 20 км 8/3 500 м
[Cu hum Ac trans Ci]
+27.3 +24.1 83 +38 +39 очень
душно
1012.1 988.8 +30.6
12 18.03 ЮВ 3 20 км 4/0
[Ci fib]
+23.6 +20.8 84 +29 +32 душно 1014.7 991.6 +19.6 0.7
15 18.03 ЮВ 8 20 км 3/3 600 м
[Cu hum]
+27.1 +21.0 69 +34 +37 очень
душно
1015.6 992.5
18 18.03 Ю 4 20 км 8/5 600 м
[Cu hum Ac trans]
+30.0 +21.9 62 +39 +42 очень
душно
1012.3 990.4
21 18.03 штиль 0 20 км 9/1 600 м
[Sc Ac trans]
+29.0 +23.9 74 +40 +42 очень
душно
1010.8 988.0 +30.0
12 19.03 Ю 6 20 км 3/0
[Ci fib]
+23.8 +21.5 87 +30 +31 очень
душно
1003.8 990.9 +20.5
15 19.03 Ю 1 20 км 1/1 600 м
[Cu hum]
+30.0 +23.6 69 +41 +61 опасность
перегрева
1014.7 991.8
18 19.03 ЮВ 7 20 км 5/5 600 м
[Cu hum Ci fib]
+31.0 +23.3 64 +42 +44 опасность
перегрева
1012.1 989.2
21 19.03 Ю 4 20 км 4/1 600 м
[Cu hum Ci fib]
+30.0 +22.6 65 +40 +41 очень
душно
1009.9 987.0 +31.8
12 20.03 штиль 0 20 км 4/0
[Ci sp]
+23.0 +21.8 93 +31 +35 очень
душно
1014.0 991.1 +19.0
15 20.03 Ю 5 20 км 5/1 500 м
[Cu hum Ci sp]
+31.0 +24.7 69 +44 +51 опасность
перегрева
1014.3 991.4
18 20.03 ЮВ 4 10 км 6/6 500 м
[Cu med, cong]
+32.8 +25.3 65 +47 +52 опасность
перегрева
1011.2 988.3
21 20.03 В 5 20 км 4/1 600 м
[Cu hum Ci fib]
+31.6 +25.6 71 +47 +48 опасность
перегрева
1008.0 985.2 +33.0
12 21.03 Ю 4 20 км 8/1 900 м
[Sc Ac trans]
+23.4 +22.1 92 +32 +33 очень
душно
1012.4 989.6 +21.0
15 21.03 ЮВ 4 20 км 9/6 800 м
[Sc Ac trans]
+29.0 +23.9 74 +40 +43 очень
душно
1013.7 990.8
18 21.03 ЮВ 8 8000 м осадки на расстоянии 10/8 480 м
[Cb calv Ac trans]
+29.4 +25.4 79 +43 +43 опасность
перегрева
1012.5 989.6
21 21.03 штиль 0 20 км в посл. час дождь {гроза} 10/8 600 м
[Sc As op]
+24.5 +24.1 98 +34 +34 очень
душно
1010.4 987.3 +31.6
12 22.03 штиль 0 20 км 10/6 240 м
[Frnb Ac trans]
+23.8 +23.8 100 +32 +33 очень
душно
1014.2 991.5 +23.0 4
15 22.03 штиль 0 20 км 9/6 450 м
[Cb calv Ac trans]
+27.6 +24.5 83 +39 +44 очень
душно
1015.4 992.3
18 22.03 штиль 0 20 км {ливн. осадки} 8/5 500 м
[Cb calv Ci]
+31.0 +26.0 75 +46 +57 опасность
перегрева
1011.9 989.1 0.4
21 22.03 ЮВ 4 6000 м осадки на расстоянии 9/6 500 м
[Cb calv Ci]
+28.4 +25.6 85 +42 +43 опасность
перегрева
1009.5 986.6 +31.0

 

Местоположение метеостанции Rurrenabaque (Боливия): широта -14.46 долгота -67.56 высота над уровнем моря 204 м.

В архиве по умолчанию представлена погода в Rurrenabaque за последнюю неделю. Архивные данные за месяц целиком и за предыдущие месяцы, начиная с января 2011 года, Вы можете получить, выбрав интересующий диапазон дат из раскрывающегося списка и нажав кнопку "Ввод!".

Внимание! Время в таблицах - всемирное. Для получения местного времени необходимо прибавить поправку, которая в Rurrenabaque равна -4 ч.

Смотрите также архив погоды в соседних городах и на ближайших метеорологических станциях:

Погода в Reyes (Боливия) (26 км)
Погода в Santa Rosa (Боливия) (78 км)
Погода в San Borja (Боливия) (87 км)
Погода в San Ignacio De Moxo (Боливия) (217 км)
Погода в Ovejuyo (Боливия) (235 км)
Погода в La Paz (Боливия) (238 км)
Погода в Santa Ana (Боливия) (243 км)
Погода в Baures (Боливия) (243 км)
Погода в Puerto Maldonado (Перу) (273 км)
Погода в Trinidad (Боливия) (288 км)

Пояснения к столбцам:

Ветер - указаны скорость ветра в м/с - средняя за 10 мин, порывы в срок и между сроками (в фигурных скобках) и направление, откуда дует ветер: С - северный, СВ - северо-восточный, В - восточный, ЮВ - юго-восточный, Ю - южный, ЮЗ - юго-западный, З - западный, СЗ - северо-западный.
Видимость - горизонтальная дальность видимости в метрах или километрах. При видимости от 1 до 10 км при отсутствии осадков обычно наблюдается дымка, при ухудшении видимости до 1 км и менее - туман. В сухую погоду видимость может ухудшаться дымом, пылью или мглою.
Явления - указаны атмосферные явления, наблюдавшиеся в срок или в последний час перед сроком; фигурными скобками обозначены явления, наблюдавшиеся между сроками (за 1-3 часа до срока); квадратными скобками обозначены град или гололедные отложения с указанием их диаметра в мм.
Облачность - указаны через наклонную черту общая и нижняя облачность в баллах и высота нижней границы облаков в метрах; квадратными скобками обозначены формы облаков: Ci - перистые, Cs - перисто-слоистые, Cc - перисто-кучевые, Ac - высококучевые, As - высокослоистые, Sc - слоисто-кучевые, Ns - слоисто-дождевые, Cu - кучевые, Cb - кучево-дождевые. Подробнее классификацию облаков см. в Атласе облаков (PDF).
T - Температура воздуха - температура, измеренная на высоте 2 м над землей.
Td - Температура точки росы - температура, при понижении до которой содержащийся в воздухе водяной пар достигнет насыщения.
f - Относительная влажность воздуха - влажноcть воздуха, измеренная на высоте 2 м над землей.
Te - Эффективная температура - температура, которую ощущает одетый по сезону человек в тени. Характеристика душности погоды. При расчете учитывается влияние влажности воздуха и скорости ветра на теплоощущения человека.
Tes - Эффективная температура на солнце - температура, которую ощущает человек, с поправкой на солнечный нагрев. Характеристика знойности погоды. Зависит от высоты солнца над горизонтом, облачности и скорости ветра. Ночью, в пасмурную погоду, а также при ветре 12 м/с и более поправка равна нулю.
P - Атмосферное давление - приведенное к уровню моря атмосферное давление.
Po - Атмосферное давление - измеренное на уровне метеостанции атмосферное давление.
Tmin - Минимальная температура - минимум температуры воздуха на высоте 2 м над землей.
Tmax - Максимальная температура - максимум температуры воздуха на высоте 2 м над землей.
R - Количество осадков - Количество выпавших осадков, мм. При наведении курсора мыши на число - период времени, за который выпало указанное количество осадков.
S - Снежный покров - Высота снежного покрова, см. При наведении курсора мыши на число - состояние снежного покрова и степень покрытия местности в баллах.